Location: Limoges
(45.8354°N, 1.2645°E)
Time: 12:38:29
(UTC+01:00)

Transit 2A - All Passes

Search period start: 22 February 2024 00:00
Search period end: 03 March 2024 00:00
Orbit: 600 x 953 km, 66.7° (Epoch: 22 February)

Date Brightness Start Highest point End Pass type
(mag) Time Alt. Az. Time Alt. Az. Time Alt. Az.
22 Feb - 04:24:52 10° N 04:28:17 19° NE 04:31:53 10° E visible
22 Feb - 06:07:04 10° NW 06:11:54 82° WSW 06:17:13 10° SSE visible
22 Feb - 07:52:38 10° W 07:54:22 12° WSW 07:56:09 10° SW daylight
22 Feb - 20:49:34 10° S 20:53:44 44° ESE 20:57:52 10° NE visible
22 Feb - 22:33:23 10° W 22:36:58 25° NW 22:40:36 10° NNE night (unlit)
23 Feb - 03:50:19 10° N 03:53:00 15° NE 03:55:47 10° ENE visible
23 Feb - 05:32:05 10° NNW 05:36:53 69° NE 05:42:09 10° SE visible
23 Feb - 07:16:15 10° WNW 07:19:34 18° WSW 07:23:04 10° SSW visible
23 Feb - 20:15:05 10° S 20:18:50 28° ESE 20:22:35 10° NE visible
23 Feb - 21:57:49 10° WSW 22:01:48 34° NW 22:05:49 10° NNE visible
24 Feb - 03:16:03 10° N 03:17:38 11° NNE 03:19:15 10° NE visible
24 Feb - 04:57:10 10° NNW 05:01:49 48° NE 05:06:54 10° SE visible
24 Feb - 06:40:38 10° NW 06:44:43 26° WSW 06:49:07 10° SSW visible
24 Feb - 19:40:59 10° SSE 19:44:00 19° ESE 19:47:02 10° ENE visible
24 Feb - 21:22:27 10° SW 21:26:41 50° NW 21:30:57 10° NNE visible
24 Feb - 23:09:55 10° NW 23:10:52 11° NNW 23:11:50 10° NNW night (unlit)
25 Feb - 04:22:19 10° NNW 04:26:42 35° NE 04:31:27 10° ESE visible
25 Feb - 06:05:17 10° NW 06:09:49 38° WSW 06:14:46 10° S visible
25 Feb - 19:07:39 10° SE 19:09:14 12° ESE 19:10:49 10° E visible
25 Feb - 20:47:16 10° SW 20:51:38 77° WNW 20:56:01 10° NNE visible
25 Feb - 22:33:13 10° WNW 22:35:30 14° NW 22:37:49 10° N visible
26 Feb - 03:47:32 10° NNW 03:51:31 26° NE 03:55:48 10° E visible
26 Feb - 05:30:06 10° NW 05:34:53 57° WSW 05:40:08 10° SSE visible
26 Feb - 20:12:18 10° SSW 20:16:38 69° ESE 20:20:59 10° NE visible
26 Feb - 21:57:08 10° W 22:00:11 18° NW 22:03:17 10° N visible
27 Feb - 03:12:49 10° N 03:16:17 19° NE 03:19:57 10° E visible
27 Feb - 04:55:02 10° NW 04:59:54 83° WSW 05:05:17 10° SSE visible
27 Feb - 06:40:28 10° W 06:42:22 12° WSW 06:44:20 10° SW visible
27 Feb - 19:37:33 10° S 19:41:42 44° ESE 19:45:50 10° NE visible
27 Feb - 21:21:21 10° W 21:24:56 25° NW 21:28:35 10° NNE visible
28 Feb - 02:38:14 10° N 02:40:58 15° NE 02:43:51 10° ENE night (unlit)
28 Feb - 04:20:02 10° NNW 04:24:52 69° NE 04:30:13 10° SE visible
28 Feb - 06:04:11 10° WNW 06:07:34 18° WSW 06:11:10 10° SSW visible
28 Feb - 19:03:04 10° S 19:06:49 28° ESE 19:10:33 10° NE visible
28 Feb - 20:45:47 10° WSW 20:49:45 34° NW 20:53:48 10° NNE visible
29 Feb - 02:03:55 10° N 02:05:36 12° NNE 02:07:21 10° NE night (unlit)
29 Feb - 03:45:06 10° NNW 03:49:48 48° NE 03:54:57 10° SE visible
29 Feb - 05:28:34 10° NW 05:32:43 27° WSW 05:37:12 10° SSW visible
29 Feb - 18:28:58 10° SSE 18:31:59 18° ESE 18:34:59 10° ENE daylight
29 Feb - 20:10:25 10° SW 20:14:38 50° NW 20:18:55 10° NNE visible
29 Feb - 21:57:47 10° NW 21:58:50 11° NNW 21:59:54 10° NNW visible
01 Mar - 03:10:15 10° NNW 03:14:41 35° NE 03:19:30 10° ESE night (unlit)
01 Mar - 04:53:12 10° NW 04:57:48 39° WSW 05:02:50 10° S visible
01 Mar - 17:55:40 10° SE 17:57:12 12° ESE 17:58:43 10° E daylight
01 Mar - 19:35:14 10° SW 19:39:35 77° NW 19:43:58 10° NNE visible
01 Mar - 21:21:08 10° WNW 21:23:27 14° NW 21:25:49 10° N visible
02 Mar - 02:35:27 10° NNW 02:39:30 26° NE 02:43:51 10° E night (unlit)
02 Mar - 04:18:02 10° NW 04:22:52 57° WSW 04:28:11 10° SSE night (unlit)
02 Mar - 19:00:16 10° SSW 19:04:35 69° ESE 19:08:56 10° NE daylight
02 Mar - 20:45:04 10° W 20:48:08 18° NW 20:51:16 10° N visible
